Location: Hradec Kralove
(50.2170°N, 15.8330°E)
Time: 08:53:35
(UTC+02:00)

N. Korean satellite - Visible Passes

Search period start: 28 September 2020 00:00
Search period end: 08 October 2020 00:00
Orbit: 455 x 503 km, 97.2° (Epoch: 27 September)

Date Brightness Start Highest point End Pass type
(mag) Time Alt. Az. Time Alt. Az. Time Alt. Az.
28 Sep 8.9 06:01:05 10° NNE 06:04:19 30° E 06:07:30 10° SSE visible
29 Sep 9.8 05:35:45 10° NE 05:38:05 16° E 05:40:23 10° SE visible
01 Oct 8.0 06:16:08 10° NNE 06:19:38 44° E 06:23:02 10° S visible
02 Oct 9.4 05:50:30 10° NE 05:53:26 23° E 05:56:18 10° SSE visible
03 Oct 10.1 05:25:35 10° ENE 05:27:08 12° E 05:28:40 10° ESE visible
05 Oct 8.6 06:05:26 10° NNE 06:08:42 33° E 06:11:55 10° SSE visible
06 Oct 9.7 05:39:59 10° NE 05:42:27 18° E 05:44:54 10° SE visible
07 Oct 10.8 19:02:19 10° W 19:03:02 10° W 19:03:43 10° WNW visible
